Terminal Aerodrome Forecast
Issued by NWS Shreveport, LA

Home | Current Version | Previous Version | Text Only | Print | Product List | Glossary On
Versions: 1 2 3 4 5 6 7 8 9 10 11 12 13 14 15 16 17 18 19 20 21 22 23 24 25 26 27 28 29 30 31 32 33 34
373
FTUS44 KSHV 281908 AAD
TAFSHV
TAF AMD
KSHV 281908Z 2819/2918 25006KT P6SM FEW010 BKN015
      TEMPO 2819/2822 P6SM -TSRA FEW008 BKN060CB
     FM290200 18004KT P6SM SCT060 BKN150 BKN250
     FM290800 18004KT P6SM SCT120 BKN250
     FM291500 25008KT P6SM OVC250=

USA.gov is the U.S. government's official web portal to all federal, state and local government web resources and services.